This demonstration page uses our WeatherBlox Daily Observations layout. Learn more.

Left ArrowRight Arrow

36.17497, -115.13722

Hourly Observations for July 21, 2021

Temp ( °F °C ) Dew Point ( °F °C ) Humidity (%) Winds ( mph kmh ) Pressure ( in mb ) Visibility ( mi km ) Precip ( " mm )
12:53 am 00:53 Clear 92 33.3 61 16.1 36 36 W 6 9 29.83 1010 10 16 0.00 0.00
1:53 am 01:53 Clear 90 32.2 63 17.2 41 41 N 3 6 29.80 1009 10 16 0.00 0.00
2:53 am 02:53 Clear 89 31.7 62 16.7 41 41 E 9 15 29.80 1009 10 16 0.00 0.00
3:53 am 03:53 Clear 88 31.1 61 16.1 40 40 E 6 9 29.71 1006 10 16 0.00 0.00
4:53 am 04:53 Clear 88 31.1 61 16.1 40 40 NNW 3 6 29.83 1010 10 16 0.00 0.00
5:53 am 05:53 Sunny 89 31.7 61 16.1 39 39 NE 3 6 29.84 1010 10 16 0.00 0.00
6:53 am 06:53 Mostly Cloudy 89 31.7 60 15.6 38 38 Calm 29.85 1011 10 16 0.00 0.00
7:53 am 07:53 Mostly Sunny 91 32.8 60 15.6 35 35 undefined N/A 29.86 1011 N/A 0.00 0.00
8:53 am 08:53 Sunny 92 33.3 60 15.6 34 34 E 3 6 29.86 1011 10 16 0.00 0.00
9:53 am 09:53 Sunny 94 34.4 60 15.6 32 32 VRB 3 6 29.87 1011 10 16 0.00 0.00
10:53 am 10:53 Partly Cloudy 96 35.6 57 13.9 27 27 S 5 7 29.86 1011 10 16 0.00 0.00
11:53 am 11:53 Sunny 99 37.2 58 14.4 26 26 VRB 5 7 29.85 1011 10 16 0.00 0.00
12:53 pm 12:53 Sunny 101 38.3 55 12.8 22 22 WSW 5 7 29.83 1010 10 16 0.00 0.00
1:53 pm 13:53 Mostly Sunny 101 38.3 54 12.2 21 21 Calm 29.80 1009 10 16 0.00 0.00
2:53 pm 14:53 Sunny 100 37.8 56 13.3 23 23 SE 8 13 29.80 1009 10 16 0.00 0.00
3:53 pm 15:53 Sunny 100 37.8 59 15 26 26 S 10 17 29.79 1009 10 16 0.00 0.00
4:53 pm 16:53 Sunny 101 38.3 56 13.3 22 22 S 9 15 29.77 1008 10 16 0.00 0.00
5:53 pm 17:53 Sunny 102 38.9 52 11.1 19 19 SSE 10 17 29.76 1008 10 16 0.00 0.00
6:53 pm 18:53 Sunny 101 38.3 53 11.7 20 20 SSE 8 13 29.77 1008 10 16 0.00 0.00
7:53 pm 19:53 Sunny 100 37.8 53 11.7 21 21 SSE 7 11 29.78 1008 10 16 0.00 0.00
8:53 pm 20:53 Clear 98 36.7 54 12.2 23 23 S 3 6 29.79 1009 10 16 0.00 0.00
9:53 pm 21:53 Clear 97 36.1 55 12.8 24 24 Calm 29.81 1009 10 16 0.00 0.00
10:53 pm 22:53 Clear 95 35 57 13.9 28 28 Calm 29.82 1010 10 16 0.00 0.00
11:53 pm 23:53 Clear 94 34.4 59 15 31 31 S 5 7 29.82 1010 10 16 0.00 0.00

Powered by AerisWeather